This demonstration page uses our WeatherBlox Daily Observations layout. Learn more.

Left ArrowRight Arrow

38.89511, -77.03637

Hourly Observations for May 12, 2018

Temp ( °F °C ) Dew Point ( °F °C ) Humidity (%) Winds ( mph kmh ) Pressure ( in mb ) Visibility ( mi km ) Precip ( " mm )
12:52 am 00:52 Mostly Clear 72 22.2 57 13.9 59 59 S 9 15 30.04 1017 10 16 0.00 0.00
1:52 am 01:52 Mostly Clear 70 21.1 59 15 68 68 S 9 15 30.01 1016 10 16 0.00 0.00
2:52 am 02:52 Mostly Cloudy 70 21.1 59 15 68 68 S 6 9 30.00 1016 10 16 0.00 0.00
3:52 am 03:52 Cloudy 70 21.1 59 15 68 68 S 3 6 30.01 1016 10 16 0.00 0.00
4:52 am 04:52 Partly Cloudy 69 20.6 61 16.1 76 76 ENE 3 6 30.03 1017 10 16 0.00 0.00
5:52 am 05:52 Partly Cloudy 67 19.4 59 15 76 76 NNE 6 9 30.04 1017 10 16 0.00 0.00
6:52 am 06:52 Partly Cloudy 67 19.4 60 15.6 79 79 NE 7 11 30.05 1018 10 16 0.00 0.00
7:52 am 07:52 Mostly Cloudy 69 20.6 61 16.1 76 76 NNE 8 13 30.07 1018 10 16 0.00 0.00
8:52 am 08:52 Mostly Cloudy 70 21.1 60 15.6 71 71 NNE 7 11 30.08 1019 10 16 0.00 0.00
9:52 am 09:52 Mostly Cloudy 72 22.2 61 16.1 68 68 NE 6 9 30.08 1019 10 16 0.00 0.00
10:52 am 10:52 Mostly Cloudy 76 24.4 61 16.1 60 60 NE 5 7 30.07 1018 10 16 0.00 0.00
11:52 am 11:52 Mostly Cloudy 76 24.4 62 16.7 62 62 S 5 7 30.05 1018 10 16 0.00 0.00
12:52 pm 12:52 Mostly Cloudy 79 26.1 64 17.8 60 60 SSE 7 11 30.02 1017 10 16 0.00 0.00
1:52 pm 13:52 Mostly Cloudy 83 28.3 66 18.9 57 57 S 10 17 30.00 1016 10 16 0.00 0.00
2:52 pm 14:52 Partly Cloudy 85 29.4 68 20 57 57 SSE 14 22 29.96 1015 10 16 0.00 0.00
3:52 pm 15:52 Partly Cloudy 88 31.1 66 18.9 48 48 S 14 22 29.94 1014 10 16 0.00 0.00
4:52 pm 16:52 Mostly Cloudy 88 31.1 65 18.3 46 46 S 15 24 29.91 1013 10 16 0.00 0.00
5:52 pm 17:52 Mostly Cloudy 87 30.6 66 18.9 50 50 S 10 17 29.91 1013 10 16 0.00 0.00
6:52 pm 18:52 Cloudy 87 30.6 65 18.3 48 48 SSW 15 24 29.91 1013 10 16 0.00 0.00
7:09 pm 19:09 Cloudy 87 30.6 65 18.3 48 48 S 12 19 29.91 1013 10 16 0.00 0.00
7:52 pm 19:52 Cloudy with Light Rain 84 28.9 66 18.9 55 55 SSW 10 17 29.90 1012 10 16 0.00 0.03
8:07 pm 20:07 Cloudy with Heavy Rain 80 26.7 69 20.6 69 69 WSW 10 17 29.91 1013 3 5 0.09 2.29
8:18 pm 20:18 Cloudy with Thunderstorms 80 26.7 70 21.1 71 71 SW 8 13 29.88 1012 5 8 0.15 3.81
8:38 pm 20:38 Cloudy 79 26.1 65 18.3 62 62 N 26 43 29.94 1014 10 16 0.15 3.81
8:47 pm 20:47 Cloudy 77 25 64 18 65 65 NNE 23 37 29.97 1015 10 16 0.15 3.81
8:52 pm 20:52 Cloudy with Thunderstorms 76 24.4 65 18.3 69 69 NNE 20 31 29.98 1015 10 16 0.15 3.81
8:59 pm 20:59 Cloudy with Thunderstorms 75 23.9 65 18.3 71 71 NNE 23 37 30.00 1016 9 14 0.00 0.00
9:07 pm 21:07 Cloudy 74 23.3 65 18.3 74 74 NNE 22 35 30.00 1016 8 13 0.00 0.00
9:52 pm 21:52 Mostly Cloudy 71 21.7 65 18.3 81 81 NE 14 22 30.02 1017 8 13 0.00 0.03
10:52 pm 22:52 Mostly Cloudy 71 21.7 64 17.8 79 79 NE 10 17 30.02 1017 10 16 0.00 0.00
11:29 pm 23:29 Mostly Cloudy with Thunderstorms 70 21.1 63 17.2 79 79 E 7 11 30.03 1017 10 16 0.00 0.00
11:46 pm 23:46 Mostly Cloudy 70 21 63 17 78 78 VRB 6 9 30.03 1017 10 16 0.00 0.00
11:52 pm 23:52 Partly Cloudy with Nearby Thunderstorms 70 21.1 63 17.2 79 79 Calm 30.04 1017 10 16 0.00 0.00
11:59 pm 23:59 Mostly Cloudy with Thunderstorms 70 21.1 63 17.2 79 79 Calm 30.06 1018 10 16 0.00 0.00

Powered by AerisWeather